Location: Lancaster
(34.6980°N, 118.1360°W)
Time: 13:08:50
(UTC-08:00)

Amateur Radio Satellites - All Passes

Search period start: 20 November 2017 12:38
Search period end: 21 November 2017 12:38
Location: Lancaster, 34.6980°N, 118.1360°W

Satellite Date Start Highest point End Downlink Frequencies (MHz)
Time Altitude Azimuth
VELOX 1 20 Nov 12:41:48 12:46:16 87° 288° (WNW) 12:50:42 145.980
M-CUBED/EXP-1 PRIME 20 Nov 12:54:56 12:57:38 21° 65° (ENE) 13:00:29 437.505
BEESAT 2 20 Nov 13:03:34 13:07:29 55° 245° (WSW) 13:11:21 435.950
AO-7 20 Nov 13:08:53 13:15:22 26° 59° (ENE) 13:21:51 .
BUGSAT 1 20 Nov 13:11:04 13:14:00 18° 265° (W) 13:16:56 437.445
AO-85 20 Nov 13:29:20 13:34:09 83° 244° (WSW) 13:39:18 145.980
DX 1 20 Nov 13:29:53 13:34:16 68° 102° (ESE) 13:38:36 434.975-435.025
FALCONSAT 3 20 Nov 13:30:21 13:34:01 70° 195° (SSW) 13:37:43 435.103
50 SAT 20 Nov 13:37:36 13:40:48 64° 283° (WNW) 13:43:57 437.505
Oscar 19 20 Nov 14:00:09 14:03:06 15° 267° (W) 14:06:04 437.125/150
ITAMSAT 1 20 Nov 14:09:40 14:14:18 33° 70° (ENE) 14:18:57 435.822/435.867
O/OREOS (USA 219) 20 Nov 14:12:52 14:16:19 21° 299° (WNW) 14:19:48 437.305
UKube-1 20 Nov 14:13:43 14:17:59 60° 286° (WNW) 14:22:13 .
NO-84 20 Nov 14:18:51 14:22:15 47° 128° (SE) 14:25:58 435.350 FM
Gurwin Techsat 1B 20 Nov 14:19:16 14:22:17 15° 267° (W) 14:25:20 435.225
M-CUBED/EXP-1 PRIME 20 Nov 14:29:31 14:31:59 18° 261° (W) 14:34:33 437.505
BEESAT 20 Nov 14:51:11 14:55:39 40° 99° (E) 15:00:05 436.000
AO-7 20 Nov 14:59:18 15:07:27 64° 256° (WSW) 15:15:42 .
ITUPSAT 1 20 Nov 15:00:16 15:04:53 49° 100° (E) 15:09:28 437.325
JUGNU 20 Nov 15:04:36 15:08:06 16° 172° (S) 15:11:36 437.505
DOVE 4 20 Nov 15:06:50 15:10:12 18° 66° (ENE) 15:13:40 437.250
FALCONSAT 3 20 Nov 15:09:58 15:12:48 21° 208° (SSW) 15:15:39 435.103
MOZHAYETS 4 20 Nov 15:19:39 15:24:11 68° 285° (WNW) 15:28:44
CUBESAT XI-V 20 Nov 15:29:32 15:33:41 31° 97° (E) 15:37:51 437.345
ITAMSAT 1 20 Nov 15:49:29 15:53:43 25° 264° (W) 15:58:00 435.822/435.867
NO-84 20 Nov 15:57:09 15:59:50 18° 326° (NW) 16:02:40 435.350 FM
XW-2C 20 Nov 16:18:24 16:20:25 14° 69° (ENE) 16:22:26 145.795 - 145.815
YUBILEINY 20 Nov 16:18:53 16:27:36 59° 80° (E) 16:36:15 435.215
LilacSat-2 20 Nov 16:19:13 16:21:32 16° 69° (ENE) 16:23:52 437.200
XW-2F 20 Nov 16:29:08 16:31:41 18° 70° (ENE) 16:34:14 145.980 - 146.000
BEESAT 20 Nov 16:29:54 16:33:04 18° 293° (WNW) 16:36:14 436.000
ITUPSAT 1 20 Nov 16:39:36 16:42:14 15° 295° (WNW) 16:44:52 437.325
DOVE 4 20 Nov 16:42:41 16:47:24 45° 262° (W) 16:52:22 437.250
SRMSAT 20 Nov 16:49:03 16:51:08 12° 166° (SSE) 16:53:13 437.500
JUGNU 20 Nov 16:52:32 16:56:23 18° 183° (S) 17:00:15 437.505
KAITUO 1B 20 Nov 16:57:19 17:00:35 31° 73° (ENE) 17:03:52 145.475/437.950
CUBESAT XI-V 20 Nov 17:07:15 17:10:50 22° 291° (WNW) 17:14:25 437.345
XW-2D 20 Nov 17:10:08 17:13:51 75° 76° (ENE) 17:17:35 145.860 - 145.880
CUTE-I 20 Nov 17:15:36 17:20:54 67° 75° (ENE) 17:26:15 437.470
KKS-1 20 Nov 17:16:14 17:20:43 79° 283° (WNW) 17:25:08 437.445
XW-2B 20 Nov 17:24:57 17:28:40 71° 260° (W) 17:32:23 145.730 - 145.750
HO-68 20 Nov 17:34:58 17:41:46 48° 69° (ENE) 17:48:37 435.675
RS-15 20 Nov 17:37:48 17:49:23 51° 109° (ESE) 18:00:59 29.354- 29.394
CUTE 1.7 + AOD 2 20 Nov 17:41:22 17:45:08 34° 73° (ENE) 17:48:56 437.475
STARS 20 Nov 17:42:13 17:46:37 77° 102° (ESE) 17:50:58 437.465
NUDT-PHONESAT 20 Nov 17:42:40 17:46:14 59° 259° (W) 17:49:52 437.300
XW-2C 20 Nov 17:51:00 17:54:18 29° 263° (W) 17:57:36 145.795 - 145.815
LilacSat-2 20 Nov 17:52:22 17:55:33 26° 263° (W) 17:58:46 437.200
UWE-3 20 Nov 17:54:35 17:57:17 16° 68° (ENE) 17:59:58 435.000/436.395/437.385
XW-2F 20 Nov 18:02:38 18:05:36 23° 264° (W) 18:08:36 145.980 - 146.000
SEEDS 20 Nov 18:12:44 18:16:43 47° 75° (ENE) 18:20:44 437.485
YUBILEINY 20 Nov 18:16:52 18:23:42 26° 277° (W) 18:30:32 435.215
AAUSAT CUBESAT 2 20 Nov 18:21:59 18:25:19 24° 71° (ENE) 18:28:40 437.432
CUBEBUG 2 20 Nov 18:30:42 18:35:20 79° 78° (ENE) 18:39:52 437.445
KAITUO 1B 20 Nov 18:33:00 18:34:37 12° 267° (W) 18:36:14 145.475/437.950
SRMSAT 20 Nov 18:35:39 18:39:33 18° 175° (S) 18:43:27 437.500
AO-73 20 Nov 18:37:00 18:40:14 21° 70° (ENE) 18:43:25 145.935
JUGNU 20 Nov 18:42:06 18:44:38 13° 192° (SSW) 18:47:11 437.505
Oscar 11 20 Nov 18:53:59 18:57:15 22° 70° (ENE) 19:00:31 .
CUTE-I 20 Nov 18:59:11 19:01:22 12° 268° (W) 19:03:31 437.470
ISS 20 Nov 19:05:59 19:06:32 10° 126° (SE) 19:07:07 437.550
XW-2A 20 Nov 19:13:27 19:16:40 50° 260° (W) 19:19:55 145.665 - 145.685
CUTE 1.7 + AOD 2 20 Nov 19:18:30 19:21:01 16° 267° (W) 19:23:34 437.475
ZACube-1 20 Nov 19:20:27 19:24:50 81° 75° (ENE) 19:29:06 437.345
HO-68 20 Nov 19:23:39 19:29:37 28° 264° (W) 19:35:38 435.675
STRAND 1 20 Nov 19:24:55 19:30:03 88° 108° (ESE) 19:35:09 437.568
UWE-3 20 Nov 19:29:12 19:33:24 39° 262° (W) 19:37:32 435.000/436.395/437.385
RS-15 20 Nov 19:50:15 20:01:56 47° 309° (NW) 20:13:39 29.354- 29.394
SEEDS 20 Nov 19:51:36 19:52:37 11° 268° (W) 19:53:39 437.485
nSIGHT-1 20 Nov 19:56:57 20:00:06 57° 135° (SE) 20:03:16 .
AAUSAT CUBESAT 2 20 Nov 19:57:31 20:00:40 21° 265° (W) 20:03:49 437.432
Max Valier Satellite 20 Nov 20:10:19 20:12:53 18° 70° (ENE) 20:15:27 145.860
FO-29 20 Nov 20:10:51 20:18:35 61° 100° (E) 20:25:45 435.910
EO-88 20 Nov 20:10:51 20:12:26 12° 68° (ENE) 20:14:00 145.990 - 145.960
AO-73 20 Nov 20:12:35 20:16:16 27° 263° (W) 20:19:54 145.935
SRMSAT 20 Nov 20:24:11 20:28:01 18° 186° (S) 20:31:51 437.500
Oscar 11 20 Nov 20:29:36 20:33:12 26° 264° (W) 20:36:49 .
DELFI C3 20 Nov 20:31:31 20:35:22 56° 76° (ENE) 20:39:17 145.870
ISS 20 Nov 20:39:24 20:42:37 56° 319° (NW) 20:45:51 437.550
SO-50 20 Nov 20:44:13 20:48:08 31° 112° (ESE) 20:52:05 436.795
NO-84 20 Nov 20:55:29 20:57:24 13° 29° (NNE) 20:59:19 435.350 FM
UNISAT 6 20 Nov 21:04:17 21:08:00 29° 97° (E) 21:11:40 437.425
TIGRISAT 20 Nov 21:08:45 21:12:28 29° 97° (E) 21:16:10 435.000
nSIGHT-1 20 Nov 21:34:37 21:36:34 15° 330° (NNW) 21:38:31 .
ESTCUBE 1 20 Nov 21:38:26 21:41:20 17° 68° (ENE) 21:44:15 437.505/2401.250
EO-88 20 Nov 21:42:29 21:45:43 31° 262° (W) 21:49:00 145.990 - 145.960
Max Valier Satellite 20 Nov 21:43:41 21:46:31 21° 264° (W) 21:49:22 145.860
FO-29 20 Nov 21:56:47 22:02:55 26° 297° (WNW) 22:08:47 435.910
LO-87 20 Nov 22:07:46 22:11:15 48° 75° (ENE) 22:14:45 145.935 - 145.965
PRISM 20 Nov 22:10:53 22:15:00 57° 101° (E) 22:19:03 437.425
RS-15 20 Nov 22:11:44 22:18:43 16° 339° (NNW) 22:25:38 29.354- 29.394
SRMSAT 20 Nov 22:14:59 22:16:27 11° 195° (SSW) 22:17:53 437.500
SO-50 20 Nov 22:24:59 22:28:34 23° 308° (NW) 22:32:11 436.795
NO-84 20 Nov 22:31:10 22:35:26 69° 46° (NE) 22:39:37 435.350 FM
UNISAT 6 20 Nov 22:41:27 22:44:29 19° 291° (WNW) 22:47:30 437.425
AIST 2D 20 Nov 22:44:34 22:47:55 41° 99° (E) 22:51:16 435.315
TIGRISAT 20 Nov 22:45:57 22:48:55 19° 291° (WNW) 22:51:53 435.000
O/OREOS (USA 219) 20 Nov 22:46:01 22:50:12 35° 65° (ENE) 22:54:19 437.305
POLYITAN 1 20 Nov 22:49:08 22:51:21 14° 94° (E) 22:53:34 437.675
PCSat 20 Nov 22:52:36 22:56:43 23° 106° (ESE) 23:00:51 145.827
SPROUT 20 Nov 22:59:35 23:03:20 31° 72° (ENE) 23:07:07 437.525
QB50P2 20 Nov 23:11:09 23:14:51 30° 97° (E) 23:18:32 145.880/145.840
ESTCUBE 1 20 Nov 23:13:41 23:17:48 37° 262° (W) 23:21:58 437.505/2401.250
VELOX 1 20 Nov 23:35:12 23:39:29 52° 74° (ENE) 23:43:49 145.980
DUCHIFAT 1 21 Nov 00:00:54 00:05:04 85° 102° (ESE) 00:09:13 145.980
50 SAT 21 Nov 00:01:55 00:04:09 18° 71° (ENE) 00:06:24 437.505
EO-79 21 Nov 00:07:56 00:12:02 58° 285° (WNW) 00:16:09 145.935-145.965
NO-84 21 Nov 00:10:36 00:12:16 12° 241° (WSW) 00:13:55 435.350 FM
NANOSAT C BR1 21 Nov 00:11:21 00:15:29 60° 285° (WNW) 00:19:34 145.865
DX 1 21 Nov 00:21:53 00:25:53 36° 72° (ENE) 00:29:54 434.975-435.025
POLYITAN 1 21 Nov 00:23:22 00:27:14 37° 287° (WNW) 00:31:05 437.675
O/OREOS (USA 219) 21 Nov 00:26:18 00:29:16 17° 260° (W) 00:32:13 437.305
RS-15 21 Nov 00:32:20 00:38:45 15° 18° (NNE) 00:44:59 29.354- 29.394
Oscar 19 21 Nov 00:34:08 00:38:15 24° 96° (E) 00:42:21 437.125/150
PCSat 21 Nov 00:34:42 00:39:47 41° 301° (WNW) 00:44:54 145.827
SPROUT 21 Nov 00:36:16 00:39:13 18° 265° (W) 00:42:11 437.525
QB50P2 21 Nov 00:47:30 00:50:22 18° 291° (WNW) 00:53:14 145.880/145.840
BUGSAT 1 21 Nov 00:54:35 00:58:37 82° 102° (ESE) 01:02:37 437.445
Gurwin Techsat 1B 21 Nov 00:57:01 01:01:35 28° 97° (E) 01:06:06 435.225
UKube-1 21 Nov 01:04:10 01:08:27 71° 76° (ENE) 01:12:46 .
VELOX 1 21 Nov 01:14:43 01:16:10 11° 268° (W) 01:17:39 145.980
50 SAT 21 Nov 01:33:58 01:36:07 17° 264° (W) 01:38:16 437.505
BEESAT 3 21 Nov 01:40:12 01:43:44 31° 113° (ESE) 01:47:17 437.485
BEESAT 21 Nov 01:54:13 01:58:25 32° 70° (ENE) 02:02:39 436.000
DX 1 21 Nov 01:59:28 02:02:08 16° 266° (W) 02:04:50 434.975-435.025
ITUPSAT 1 21 Nov 02:03:31 02:07:57 39° 71° (ENE) 02:12:23 437.325
M-CUBED/EXP-1 PRIME 21 Nov 02:08:55 02:13:07 34° 103° (ESE) 02:17:20 437.505
Oscar 19 21 Nov 02:12:56 02:17:33 34° 290° (WNW) 02:22:11 437.125/150
MOZHAYETS 4 21 Nov 02:17:38 02:22:11 75° 77° (ENE) 02:26:45
ITAMSAT 1 21 Nov 02:27:11 02:30:05 15° 93° (E) 02:32:58 435.822/435.867
nSIGHT-1 21 Nov 02:27:11 02:29:19 16° 31° (NNE) 02:31:26 .
CUBESAT XI-V 21 Nov 02:29:58 02:33:22 21° 69° (ENE) 02:36:47 437.345
Gurwin Techsat 1B 21 Nov 02:36:50 02:41:25 30° 291° (WNW) 02:45:59 435.225
RS-15 21 Nov 02:44:30 02:55:40 44° 49° (NE) 03:06:13 29.354- 29.394
BEESAT 2 21 Nov 02:50:45 02:54:40 56° 115° (ESE) 02:58:37 435.950
AO-7 21 Nov 03:04:38 03:12:49 56° 103° (ESE) 03:20:58 .
ISS 21 Nov 03:10:05 03:13:03 31° 37° (NE) 03:15:59 437.550
BEESAT 3 21 Nov 03:18:25 03:21:17 19° 308° (NW) 03:24:11 437.485
YUBILEINY 21 Nov 03:26:45 03:28:27 11° 76° (ENE) 03:30:08 435.215
BEESAT 21 Nov 03:32:30 03:36:10 22° 264° (W) 03:39:51 436.000
AO-85 21 Nov 03:41:00 03:44:50 73° 118° (ESE) 03:48:48 145.980
ITUPSAT 1 21 Nov 03:42:39 03:45:52 18° 266° (W) 03:49:04 437.325
M-CUBED/EXP-1 PRIME 21 Nov 03:43:45 03:47:13 22° 295° (WNW) 03:50:43 437.505
nSIGHT-1 21 Nov 04:02:38 04:05:43 47° 226° (SW) 04:08:46 .
ITAMSAT 1 21 Nov 04:04:44 04:09:49 54° 287° (WNW) 04:14:50 435.822/435.867
CUBESAT XI-V 21 Nov 04:06:25 04:10:29 31° 263° (W) 04:14:35 437.345
KKS-1 21 Nov 04:10:24 04:14:49 61° 75° (ENE) 04:19:14 437.445
BEESAT 2 21 Nov 04:30:58 04:32:42 12° 312° (NW) 04:34:27 435.950
STARS 21 Nov 04:35:06 04:39:16 43° 73° (ENE) 04:43:28 437.465
DOVE 4 21 Nov 04:44:57 04:50:05 69° 101° (E) 04:54:56 437.250
ISS 21 Nov 04:46:57 04:49:21 19° 231° (SW) 04:51:45 437.550
RS-15 21 Nov 04:57:09 05:08:11 51° 251° (WSW) 05:18:42 29.354- 29.394
AO-7 21 Nov 04:58:09 05:05:05 30° 299° (WNW) 05:12:01 .
XW-2B 21 Nov 05:01:49 05:04:01 15° 94° (E) 05:06:11 145.730 - 145.750
YUBILEINY 21 Nov 05:14:54 05:23:35 75° 94° (E) 05:32:22 435.215
NUDT-PHONESAT 21 Nov 05:16:57 05:19:09 15° 94° (E) 05:21:21 437.300
SO-50 21 Nov 05:19:23 05:21:48 14° 47° (NE) 05:24:13 436.795
XW-2C 21 Nov 05:26:20 05:29:45 31° 97° (E) 05:33:11 145.795 - 145.815
LilacSat-2 21 Nov 05:28:10 05:31:44 36° 98° (E) 05:35:18 437.200
CUTE-I 21 Nov 05:36:27 05:41:20 35° 98° (E) 05:46:11 437.470
XW-2F 21 Nov 05:36:56 05:40:32 40° 99° (E) 05:44:07 145.980 - 146.000
SEEDS 21 Nov 06:02:35 06:03:15 10° 92° (E) 06:03:57 437.485
KAITUO 1B 21 Nov 06:04:42 06:08:29 76° 103° (ESE) 06:12:15 145.475/437.950
STARS 21 Nov 06:13:26 06:15:45 14° 267° (W) 06:18:04 437.465
XW-2D 21 Nov 06:19:47 06:23:24 43° 285° (WNW) 06:27:02 145.860 - 145.880
FO-29 21 Nov 06:20:41 06:25:05 19° 60° (ENE) 06:29:46 435.910
DOVE 4 21 Nov 06:24:58 06:27:00 12° 297° (WNW) 06:29:01 437.250
CUBEBUG 2 21 Nov 06:25:54 06:28:54 19° 95° (E) 06:31:52 437.445
XW-2B 21 Nov 06:34:52 06:38:11 29° 287° (WNW) 06:41:30 145.730 - 145.750
STRAND 1 21 Nov 06:37:05 06:42:15 88° 77° (ENE) 06:47:26 437.568
XW-2A 21 Nov 06:40:06 06:40:56 11° 93° (E) 06:41:48 145.665 - 145.685
NUDT-PHONESAT 21 Nov 06:49:50 06:52:58 27° 288° (WNW) 06:56:08 437.300
HO-68 21 Nov 06:53:31 07:00:42 70° 103° (ESE) 07:07:49 435.675
SO-50 21 Nov 06:58:03 07:02:41 68° 243° (WSW) 07:07:22 436.795
XW-2C 21 Nov 07:01:34 07:03:37 14° 291° (WNW) 07:05:40 145.795 - 145.815
LilacSat-2 21 Nov 07:03:56 07:05:37 13° 292° (WNW) 07:07:19 437.200
CUTE 1.7 + AOD 2 21 Nov 07:04:33 07:08:49 72° 282° (WNW) 07:13:04 437.475
ZACube-1 21 Nov 07:12:52 07:15:49 19° 95° (E) 07:18:47 437.345
XW-2F 21 Nov 07:13:03 07:14:13 11° 292° (WNW) 07:15:23 145.980 - 146.000
YUBILEINY 21 Nov 07:15:13 07:21:13 20° 292° (WNW) 07:27:18 435.215
CUTE-I 21 Nov 07:16:50 07:21:09 25° 293° (WNW) 07:25:25 437.470
UWE-3 21 Nov 07:21:48 07:25:49 50° 99° (E) 07:29:51 435.000/436.395/437.385
SEEDS 21 Nov 07:35:02 07:39:10 52° 285° (WNW) 07:43:18 437.485
AAUSAT CUBESAT 2 21 Nov 07:41:32 07:45:44 74° 102° (ESE) 07:49:53 437.432
PCSat 21 Nov 07:45:43 07:46:40 10° 45° (NE) 07:47:37 145.827
UNISAT 6 21 Nov 08:00:07 08:03:18 19° 69° (ENE) 08:06:26 437.425
FALCONSAT 3 21 Nov 08:00:44 08:03:08 16° 150° (SSE) 08:05:31 435.103
CUBEBUG 2 21 Nov 08:02:00 08:05:29 26° 289° (WNW) 08:08:56 437.445
FO-29 21 Nov 08:02:44 08:09:08 73° 258° (WSW) 08:16:26 435.910
AO-73 21 Nov 08:02:52 08:06:59 70° 101° (E) 08:11:10 145.935
TIGRISAT 21 Nov 08:04:25 08:07:37 19° 69° (ENE) 08:10:47 435.000
XW-2A 21 Nov 08:10:43 08:13:41 29° 286° (WNW) 08:16:38 145.665 - 145.685
Oscar 11 21 Nov 08:19:10 08:23:29 71° 102° (ESE) 08:27:48 .
HO-68 21 Nov 08:42:46 08:47:41 20° 300° (WNW) 08:52:36 435.675
ZACube-1 21 Nov 08:48:33 08:52:04 27° 288° (WNW) 08:55:37 437.345
PRISM 21 Nov 08:56:54 09:00:16 25° 70° (ENE) 09:03:40 437.425
UWE-3 21 Nov 09:00:46 09:01:48 11° 294° (WNW) 09:02:50 435.000/436.395/437.385
EO-88 21 Nov 09:14:11 09:17:12 24° 97° (E) 09:20:12 145.990 - 145.960
Max Valier Satellite 21 Nov 09:15:48 09:19:15 38° 99° (E) 09:22:42 145.860
PCSat 21 Nov 09:25:31 09:30:57 76° 64° (ENE) 09:36:21 145.827
UNISAT 6 21 Nov 09:35:31 09:39:43 35° 262° (W) 09:43:52 437.425
FALCONSAT 3 21 Nov 09:38:12 09:41:50 59° 164° (SSE) 09:45:28 435.103
TIGRISAT 21 Nov 09:39:51 09:44:01 34° 262° (W) 09:48:09 435.000
DELFI C3 21 Nov 09:46:03 09:49:57 51° 285° (WNW) 09:53:48 145.870
QB50P2 21 Nov 10:01:18 10:03:48 15° 68° (ENE) 10:06:18 145.880/145.840
PRISM 21 Nov 10:32:20 10:35:27 21° 264° (W) 10:38:35 437.425
AIST 2D 21 Nov 10:47:57 10:51:12 40° 261° (W) 10:54:29 435.315
EO-88 21 Nov 10:48:16 10:50:37 16° 290° (WNW) 10:52:57 145.990 - 145.960
DUCHIFAT 1 21 Nov 10:48:58 10:52:52 37° 73° (ENE) 10:56:45 145.980
Max Valier Satellite 21 Nov 10:51:47 10:52:39 11° 292° (WNW) 10:53:32 145.860
EO-79 21 Nov 10:56:15 11:00:27 63° 76° (ENE) 11:04:39 145.935-145.965
NANOSAT C BR1 21 Nov 10:59:22 11:03:31 59° 76° (ENE) 11:07:42 145.865
ESTCUBE 1 21 Nov 11:08:56 11:13:25 58° 101° (E) 11:17:53 437.505/2401.250
LO-87 21 Nov 11:10:49 11:14:21 79° 283° (WNW) 11:17:51 145.935 - 145.965
POLYITAN 1 21 Nov 11:11:35 11:15:50 84° 258° (WSW) 11:20:06 437.675
PCSat 21 Nov 11:12:02 11:13:36 11° 258° (WSW) 11:15:10 145.827
BEESAT 2 21 Nov 11:12:54 11:14:46 13° 48° (NE) 11:16:37 435.950
FALCONSAT 3 21 Nov 11:17:13 11:20:55 78° 358° (N) 11:24:37 435.103
VELOX 1 21 Nov 11:30:22 11:32:20 13° 93° (E) 11:34:19 145.980
QB50P2 21 Nov 11:35:18 11:39:14 37° 262° (W) 11:43:12 145.880/145.840
BEESAT 3 21 Nov 11:36:41 11:40:37 85° 58° (ENE) 11:44:29 437.485
BUGSAT 1 21 Nov 11:40:35 11:44:23 34° 72° (ENE) 11:48:10 437.445
Oscar 19 21 Nov 11:47:49 11:51:55 25° 68° (ENE) 11:56:02 437.125/150
AO-85 21 Nov 12:14:38 12:18:42 27° 54° (NE) 12:23:00 145.980
Gurwin Techsat 1B 21 Nov 12:14:42 12:19:23 33° 70° (ENE) 12:24:06 435.225
SPROUT 21 Nov 12:23:31 12:27:46 84° 285° (WNW) 12:32:00 437.525
DUCHIFAT 1 21 Nov 12:26:18 12:28:37 14° 266° (W) 12:30:56 145.980
